Terminal Aerodrome Forecast
Issued by NWS

Home | Current Version | Previous Version | Graphics & Text | Print | Product List | Glossary On
Versions: 1 2 3 4 5 6 7 8 9 10 11 12 13 14 15 16 17 18 19 20 21 22 23 24 25
000
FTUS43 KABR 160200 AAA
TAFPIR
TAF AMD
KPIR 160243Z 1603/1624 34021G31KT 5SM BLSN OVC016
     FM160500 33015KT P6SM OVC015
     FM161200 33010KT P6SM OVC015=

USA.gov is the U.S. government's official web portal to all federal, state and local government web resources and services.